• In Deutschland
  • Länderverzeichnis
  • Für 7 Tage
  • Wassertemperatur
  • Satellitenkarten
  • Wetterkarte
  • Widgets
  • user-avatar
    Anmelden

    Stündliche Wetter Bad Liebenstein

    Heute, 19 Oktober, Donnerstag

    Zeit Temperatur Niederschläge Wind Luftdruck Luftfeuchtigkeit
    00:00 +11°C° 0 mm 1 m/S 728 mmHg 85%
    01:00 +10°C° 0 mm 1 m/S 728 mmHg 84%
    02:00 +10°C° 0 mm 1 m/S 728 mmHg 84%
    03:00 +10°C° 0 mm 1 m/S 728 mmHg 84%
    04:00 +10°C° 0 mm 1 m/S 728 mmHg 84%
    05:00 +10°C° 0 mm 1 m/S 728 mmHg 84%
    06:00 +10°C° 0 mm 1 m/S 728 mmHg 84%
    07:00 +9°C° 0 mm 1 m/S 728 mmHg 82%
    08:00 +11°C° 0 mm 1 m/S 728 mmHg 76%
    09:00 +13°C° 0 mm 2 m/S 729 mmHg 70%
    10:00 +15°C° 0 mm 2 m/S 729 mmHg 64%
    11:00 +17°C° 0 mm 2 m/S 729 mmHg 61%
    12:00 +18°C° 0 mm 3 m/S 729 mmHg 58%
    13:00 +19°C° 0 mm 3 m/S 729 mmHg 55%
    14:00 +19°C° 0 mm 3 m/S 728 mmHg 59%
    15:00 +18°C° 0 mm 2 m/S 728 mmHg 62%
    16:00 +18°C° 0 mm 2 m/S 728 mmHg 66%
    17:00 +16°C° 0 mm 2 m/S 728 mmHg 72%
    18:00 +15°C° 0 mm 2 m/S 727 mmHg 78%
    19:00 +13°C° 0 mm 2 m/S 727 mmHg 84%
    20:00 +13°C° 0 mm 2 m/S 728 mmHg 85%
    21:00 +13°C° 0 mm 2 m/S 728 mmHg 86%
    22:00 +12°C° 0 mm 2 m/S 728 mmHg 86%
    23:00 +12°C° 0 mm 2 m/S 728 mmHg 86%

    Morgen, 20 Oktober, Freitag

    Zeit Temperatur Niederschläge Wind Luftdruck Luftfeuchtigkeit
    00:00 +12°C° 0 mm 2 m/S 728 mmHg 86%
    01:00 +12°C° 0 mm 2 m/S 728 mmHg 86%
    02:00 +12°C° 0 mm 2 m/S 728 mmHg 85%
    03:00 +12°C° 0 mm 2 m/S 728 mmHg 83%
    04:00 +12°C° 0 mm 2 m/S 728 mmHg 82%
    05:00 +12°C° 0 mm 2 m/S 728 mmHg 80%
    06:00 +12°C° 0 mm 2 m/S 728 mmHg 79%
    07:00 +12°C° 0 mm 2 m/S 728 mmHg 77%
    08:00 +13°C° 0 mm 2 m/S 728 mmHg 74%
    09:00 +13°C° 0 mm 3 m/S 729 mmHg 70%
    10:00 +14°C° 0 mm 3 m/S 729 mmHg 66%
    11:00 +14°C° 0,3 mm 3 m/S 729 mmHg 69%
    12:00 +14°C° 0,3 mm 3 m/S 729 mmHg 72%
    13:00 +14°C° 0,3 mm 3 m/S 729 mmHg 75%
    14:00 +14°C° 0,3 mm 3 m/S 729 mmHg 79%
    15:00 +14°C° 0,3 mm 3 m/S 729 mmHg 82%
    16:00 +13°C° 0,3 mm 4 m/S 729 mmHg 86%
    17:00 +13°C° 0,1 mm 3 m/S 729 mmHg 88%
    18:00 +12°C° 0,1 mm 3 m/S 729 mmHg 91%
    19:00 +11°C° 0,1 mm 3 m/S 730 mmHg 93%
    20:00 +11°C° 0 mm 3 m/S 730 mmHg 94%
    21:00 +10°C° 0 mm 2 m/S 730 mmHg 95%
    22:00 +9°C° 0 mm 2 m/S 730 mmHg 95%
    23:00 +9°C° 0 mm 2 m/S 730 mmHg 96%

    übermorgen, 21 Oktober, Samstag

    Zeit Temperatur Niederschläge Wind Luftdruck Luftfeuchtigkeit
    00:00 +9°C° 0 mm 2 m/S 730 mmHg 96%
    01:00 +8°C° 0 mm 2 m/S 730 mmHg 96%
    02:00 +9°C° 0 mm 2 m/S 730 mmHg 95%
    03:00 +9°C° 0 mm 2 m/S 730 mmHg 95%
    04:00 +10°C° 0 mm 2 m/S 730 mmHg 95%
    05:00 +10°C° 0 mm 2 m/S 729 mmHg 95%
    06:00 +10°C° 0 mm 2 m/S 729 mmHg 95%
    07:00 +10°C° 0 mm 2 m/S 729 mmHg 95%
    08:00 +12°C° 0 mm 3 m/S 729 mmHg 90%
    09:00 +13°C° 0 mm 4 m/S 729 mmHg 85%
    10:00 +15°C° 0 mm 5 m/S 729 mmHg 80%
    11:00 +15°C° 0 mm 5 m/S 729 mmHg 78%
    12:00 +16°C° 0 mm 5 m/S 729 mmHg 76%
    13:00 +16°C° 0 mm 5 m/S 729 mmHg 73%
    14:00 +17°C° 0,2 mm 4 m/S 728 mmHg 78%
    15:00 +15°C° 0,2 mm 4 m/S 728 mmHg 82%
    16:00 +14°C° 0,2 mm 3 m/S 728 mmHg 87%
    17:00 +14°C° 0,7 mm 3 m/S 728 mmHg 89%
    18:00 +13°C° 0,7 mm 3 m/S 728 mmHg 91%
    19:00 +13°C° 0,7 mm 4 m/S 729 mmHg 93%
    20:00 +12°C° 0,6 mm 4 m/S 729 mmHg 92%
    21:00 +12°C° 0,6 mm 4 m/S 729 mmHg 92%
    22:00 +11°C° 0,6 mm 4 m/S 730 mmHg 91%
    23:00 +11°C° 0 mm 4 m/S 730 mmHg 91%

    22 Oktober, Sonntag

    Zeit Temperatur Niederschläge Wind Luftdruck Luftfeuchtigkeit
    00:00 +10°C° 0 mm 4 m/S 730 mmHg 92%
    01:00 +8°C° 0 mm 4 m/S 730 mmHg 92%
    02:00 +8°C° 0 mm 4 m/S 730 mmHg 92%
    03:00 +8°C° 0 mm 4 m/S 730 mmHg 93%
    04:00 +7°C° 0 mm 4 m/S 730 mmHg 93%
    05:00 +7°C° 0 mm 4 m/S 729 mmHg 93%
    06:00 +7°C° 0 mm 4 m/S 729 mmHg 93%
    07:00 +6°C° 0 mm 4 m/S 729 mmHg 93%
    08:00 +7°C° 0 mm 4 m/S 729 mmHg 89%
    09:00 +7°C° 0 mm 5 m/S 729 mmHg 85%
    10:00 +8°C° 0 mm 5 m/S 730 mmHg 81%
    11:00 +8°C° 0,1 mm 5 m/S 730 mmHg 78%
    12:00 +9°C° 0,1 mm 5 m/S 729 mmHg 76%
    13:00 +9°C° 0,1 mm 5 m/S 729 mmHg 73%
    14:00 +9°C° 0,1 mm 5 m/S 729 mmHg 74%
    15:00 +8°C° 0,1 mm 5 m/S 729 mmHg 75%
    16:00 +8°C° 0,1 mm 4 m/S 729 mmHg 76%
    17:00 +7°C° 0 mm 4 m/S 729 mmHg 79%
    18:00 +7°C° 0 mm 4 m/S 729 mmHg 82%
    19:00 +6°C° 0 mm 4 m/S 730 mmHg 85%
    20:00 +6°C° 0,1 mm 4 m/S 730 mmHg 86%
    21:00 +6°C° 0,1 mm 4 m/S 730 mmHg 87%
    22:00 +6°C° 0,1 mm 4 m/S 730 mmHg 88%
    23:00 +6°C° 0 mm 4 m/S 730 mmHg 89%

    23 Oktober, Montag

    Zeit Temperatur Niederschläge Wind Luftdruck Luftfeuchtigkeit
    00:00 +6°C° 0 mm 4 m/S 731 mmHg 89%
    01:00 +6°C° 0 mm 4 m/S 731 mmHg 89%
    02:00 +6°C° 0 mm 4 m/S 731 mmHg 90%
    03:00 +6°C° 0 mm 4 m/S 731 mmHg 91%
    04:00 +6°C° 0 mm 4 m/S 731 mmHg 92%
    05:00 +7°C° 0 mm 3 m/S 732 mmHg 92%
    06:00 +7°C° 0 mm 3 m/S 732 mmHg 92%
    07:00 +7°C° 0 mm 3 m/S 732 mmHg 92%
    08:00 +7°C° 0,1 mm 3 m/S 733 mmHg 90%
    09:00 +7°C° 0,1 mm 4 m/S 733 mmHg 88%
    10:00 +8°C° 0,1 mm 4 m/S 734 mmHg 86%
    11:00 +8°C° 0,1 mm 4 m/S 734 mmHg 84%
    12:00 +10°C° 0,1 mm 4 m/S 734 mmHg 82%
    13:00 +10°C° 0,1 mm 4 m/S 734 mmHg 81%
    14:00 +10°C° 0,1 mm 4 m/S 734 mmHg 81%
    15:00 +10°C° 0,1 mm 3 m/S 734 mmHg 81%
    16:00 +10°C° 0,1 mm 3 m/S 735 mmHg 82%
    17:00 +9°C° 0 mm 3 m/S 735 mmHg 85%
    18:00 +9°C° 0 mm 3 m/S 735 mmHg 89%
    19:00 +8°C° 0 mm 2 m/S 735 mmHg 92%
    20:00 +8°C° 0,3 mm 2 m/S 735 mmHg 93%
    21:00 +8°C° 0,3 mm 2 m/S 735 mmHg 94%
    22:00 +8°C° 0,3 mm 2 m/S 735 mmHg 95%
    23:00 +8°C° 0,2 mm 2 m/S 735 mmHg 96%

    24 Oktober, Dienstag

    Zeit Temperatur Niederschläge Wind Luftdruck Luftfeuchtigkeit
    00:00 +8°C° 0,2 mm 2 m/S 735 mmHg 96%
    01:00 +9°C° 0,2 mm 2 m/S 735 mmHg 96%
    02:00 +9°C° 0,1 mm 2 m/S 735 mmHg 96%
    03:00 +10°C° 0,1 mm 1 m/S 735 mmHg 96%
    04:00 +10°C° 0,1 mm 1 m/S 735 mmHg 96%
    05:00 +10°C° 0,2 mm 1 m/S 736 mmHg 97%
    06:00 +10°C° 0,2 mm 1 m/S 736 mmHg 97%
    07:00 +10°C° 0,2 mm 1 m/S 736 mmHg 97%
    08:00 +11°C° 0,1 mm 1 m/S 736 mmHg 95%
    09:00 +11°C° 0,1 mm 1 m/S 737 mmHg 93%
    10:00 +12°C° 0,1 mm 1 m/S 737 mmHg 92%
    11:00 +13°C° 0 mm 1 m/S 737 mmHg 89%
    12:00 +14°C° 0 mm 1 m/S 737 mmHg 87%
    13:00 +14°C° 0 mm 1 m/S 737 mmHg 85%
    14:00 +14°C° 0 mm 1 m/S 737 mmHg 87%
    15:00 +14°C° 0 mm 1 m/S 737 mmHg 89%
    16:00 +14°C° 0 mm 1 m/S 737 mmHg 91%
    17:00 +13°C° 0 mm 1 m/S 738 mmHg 92%
    18:00 +13°C° 0 mm 1 m/S 738 mmHg 93%
    19:00 +12°C° 0 mm 1 m/S 738 mmHg 95%
    20:00 +12°C° 0 mm 1 m/S 738 mmHg 95%
    21:00 +11°C° 0 mm 1 m/S 738 mmHg 96%
    22:00 +11°C° 0 mm 1 m/S 738 mmHg 96%
    23:00 +11°C° 0 mm 1 m/S 739 mmHg 96%
    Mehr zeigen